Location: Zagreb
(45.8000°N, 16.0000°E)
Time: 15:10:51
(UTC+01:00)

CAS-4B - Pass Details

Date: 01 November 2020
Orbit: 529 x 544 km, 43.0° (Epoch: 28 November)

Event Time Altitude Azimuth Distance (km) Brightness Sun altitude
Exits shadow 04:56:39 30° 226° (SW) 972 ? -17.8°
Maximum altitude 04:57:27 33° 202° (SSW) 911 ? -17.7°
Drops below altitude 10° 05:01:06 10° 137° (SE) 1,769 ? -17.0°
Sets 05:03:28 0° 128° (SE) 2,654 ? -16.6°
